Location: Pl�tzky
(52.0521°N, 11.8020°E)
Time: 13:44:06
(UTC+00:00)

USA 229 - Pass Details

Date: 01 March 2020
Orbit: 986 x 1226 km, 63.4° (Epoch: 26 March)

Event Time Altitude Azimuth Distance (km) Brightness Sun altitude
Rises 20:38:45 0° 299° (WNW) 3,846 7.7 -33.7°
Reaches altitude 10° 20:41:36 10° 308° (NW) 2,926 6.8 -34.0°
Maximum altitude 20:47:58 36° 14° (NNE) 1,707 4.8 -34.8°
Enters shadow 20:48:41 35° 26° (NNE) 1,736 4.8 -34.9°
